{"data":{"norad_id":61905,"intl_designator":"2024-205M","name":"2024-205M","alt_names":[],"object_type":"PAYLOAD","status":"ACTIVE","operator":null,"country":"PRC","launch_date":"2024-11-11","launch_site_code":"JSC","launch_vehicle":null,"mission":null,"orbit_class":"UNKNOWN","rcs_meters":null,"size_class":null,"mass_kg":null,"dimensions":null,"purposes":[],"wikipedia_slug":null,"has_3d_model":false,"image_url":null,"decayed_at":null,"tle_current":{"epoch":"2026-05-25T04:53:29.154624Z","epoch_age_seconds":57457,"freshness":"FRESH","line1":"1 61905U 24205M   26145.20380966  .00007596  00000+0  27142-3 0  9991","line2":"2 61905  97.3846 219.8576 0006563  48.0354 312.1445 15.29094927 84990","mean_motion":15.29094927,"eccentricity":0.0006563,"inclination_deg":97.3846,"raan_deg":219.8576,"arg_perigee_deg":48.0354,"mean_anomaly_deg":312.1445,"bstar":0.00027142,"rev_number":8499,"period_min":94.173355399537,"perigee_km":474.01658343221,"apogee_km":483.01662695439,"semimajor_km":6856.6536051933,"source":"CELESTRAK","updated_at":"2026-05-25T13:38:02.627622Z"}}}